Location: Baia Mare
(47.6567°N, 23.5850°E)
Time: 13:36:54
(UTC+03:00)

ISS - Pass Details

Date: 13 July 2019
Orbit: 409 x 418 km, 51.6° (Epoch: 21 July)

Event Time Altitude Azimuth Distance (km) Brightness Sun altitude
Exits shadow 03:24:10 - 282° (WNW) 1,954 -0.5 -16.0°
Reaches altitude 10° 03:25:22 10° 287° (WNW) 1,482 -1.1 -15.9°
Maximum altitude 03:28:31 39° 359° (N) 630 -2.4 -15.6°
Drops below altitude 10° 03:31:40 10° 70° (ENE) 1,478 -0.3 -15.4°
Sets 03:33:50 0° 78° (ENE) 2,339 0.7 -15.2°
